Lid_Strength_Index
1 0 1 1 0 0 0 1 1 1 1 1 1 2 2 2 2 2 2 1 1 1 1 1 1 1 3 7 8 4 2 3 4 4 6 7 8 9 11 10 9 10 9 9 8 8 9
0 0 -0 0 -0 0 0 1 1 2 2 1 2 2 2 2 2 2 2 2 1 1 2 2 2 2 6 9 5 4 5 5 5 5 6 6 8 7 9 10 11 9 9 9 9 9 9
0 0 -0 -0 -0 -0 0 0 1 1 2 2 2 2 3 3 3 2 2 2 2 2 2 3 2 4 7 8 4 5 6 6 5 5 6 6 6 8 8 10 8 9 11 10 10 9 10
0 0 -0 0 0 -0 0 0 1 2 2 2 2 3 3 3 3 3 3 2 2 3 3 3 3 5 9 5 4 6 5 6 5 5 5 5 5 7 8 8 10 12 12 15 11 10 10
0 0 -0 0 0 0 0 1 1 2 2 3 3 4 4 4 4 4 3 3 3 3 4 3 5 7 10 5 8 6 6 8 6 5 5 6 7 9 10 13 13 13 17 15 13 10 10
-1 -1 -0 -0 0 0 1 1 1 1 2 3 3 3 4 4 4 4 4 3 3 5 5 6 7 8 9 10 7 7 6 6 7 8 7 8 10 12 12 14 17 16 16 15 15 12 12
-1 -1 -0 0 0 1 1 1 1 1 2 2 3 3 4 4 4 4 4 4 8 6 8 9 10 10 9 8 7 7 6 8 8 10 13 10 14 15 14 14 13 14 15 16 14 12 13
-1 -1 -0 0 0 0 1 1 1 1 1 2 3 4 4 4 4 4 4 8 9 9 12 9 10 10 9 8 10 8 7 10 11 13 11 13 15 12 12 13 14 15 16 16 14 12 14
-0 -0 -0 0 1 0 1 1 1 1 1 2 3 4 4 4 5 5 7 8 5 6 11 10 10 10 10 8 11 10 8 10 12 13 13 15 13 11 12 13 14 15 16 16 16 14 14
0 0 0 0 1 1 1 1 1 1 1 2 2 4 5 5 5 6 7 6 5 6 13 12 12 10 9 8 11 8 8 10 12 14 13 14 12 13 14 14 14 17 13 14 14 17 20
1 1 1 1 1 1 1 1 1 1 2 2 2 3 6 6 6 7 7 5 5 8 20 11 12 7 8 10 10 10 8 10 13 13 14 14 14 14 14 13 13 15 13 14 14 17 19
2 2 2 2 2 1 1 1 1 1 2 2 2 3 5 6 6 6 5 6 8 13 19 15 11 11 11 10 10 9 9 9 10 13 13 14 12 13 13 12 12 12 14 14 17 18 23
3 2 2 2 2 2 2 2 1 1 1 2 2 3 6 7 7 6 7 9 13 18 9 12 12 11 11 12 10 11 11 12 14 17 17 14 14 12 11 14 13 13 17 21 23 24 22
3 3 3 3 2 2 2 2 2 2 2 2 2 4 6 7 6 6 8 11 17 13 12 11 12 12 13 10 11 11 13 14 12 13 16 18 19 14 12 14 15 15 16 19 25 23 22
4 4 4 3 3 2 2 2 2 2 2 3 5 6 7 6 5 6 9 15 15 12 10 11 11 12 12 10 12 13 13 13 12 12 16 17 17 12 12 12 13 16 18 15 18 18 23
5 5 4 4 4 3 3 2 2 3 3 3 6 7 8 5 5 7 11 13 12 9 10 11 13 11 14 12 13 12 13 11 11 11 12 14 18 13 12 11 11 13 13 19 17 23 23
5 5 5 5 4 4 4 3 3 2 2 3 6 8 7 5 5 9 13 12 10 7 9 11 11 12 12 12 11 12 12 11 11 11 11 13 15 16 13 14 14 15 16 15 16 17 21
5 5 5 5 5 4 4 4 2 3 3 3 6 9 6 5 11 11 13 11 9 9 8 11 10 10 11 11 12 12 12 11 10 10 12 11 13 17 14 12 11 13 14 14 19 19 18
5 5 4 5 5 5 4 3 2 3 3 5 8 9 5 7 14 14 11 11 10 11 11 11 11 9 9 11 13 12 11 10 9 11 12 11 14 18 16 14 14 15 13 13 14 15 18
5 5 4 4 4 4 4 3 2 2 2 3 8 13 10 9 10 11 12 12 12 9 9 9 10 9 10 11 10 12 11 9 10 10 8 9 13 15 18 16 14 16 14 13 13 17 17
4 4 4 3 3 3 3 3 2 2 1 4 7 10 10 14 12 11 10 10 11 11 10 9 10 10 11 13 12 12 11 10 9 8 10 11 16 14 14 13 13 13 13 13 14 14 16
4 3 3 3 2 2 3 3 1 1 1 5 8 9 8 8 9 11 11 11 11 10 10 11 11 10 10 12 11 12 11 11 11 10 10 10 15 14 15 13 13 14 13 12 13 13 14
3 3 2 2 2 2 1 2 2 1 1 6 5 5 6 8 10 11 12 11 11 9 9 9 9 10 11 10 8 8 8 9 10 11 11 12 13 16 18 15 14 16 14 13 13 12 13
2 2 2 2 2 1 1 1 1 1 1 3 6 6 8 12 10 11 10 10 11 10 11 9 9 10 10 8 8 9 10 10 11 12 10 12 13 14 18 16 20 15 12 12 12 13 14
1 2 1 1 2 2 1 1 1 1 1 3 4 6 9 12 10 10 11 11 11 10 10 9 9 9 8 9 12 13 15 14 13 11 12 10 12 15 17 17 15 15 15 15 16 17 16
2 2 2 1 1 1 1 1 1 1 1 3 4 4 7 10 11 9 11 10 12 11 12 11 11 9 8 10 12 16 17 16 16 16 11 10 11 13 15 18 20 17 16 14 14 19 15
1 0 0 1 1 1 1 1 1 1 1 2 4 4 6 9 8 9 11 11 9 10 12 12 11 11 10 12 13 15 16 13 17 17 17 16 15 16 16 17 15 16 15 14 19 19 15
0 0 -0 -0 -0 0 1 1 1 1 1 1 4 5 4 8 9 9 8 9 9 9 11 11 12 12 12 13 13 13 14 13 16 14 15 16 17 18 16 18 19 15 15 16 16 15 15
-0 -0 -1 -1 -1 -1 -1 0 0 -0 -1 -1 7 6 5 7 10 8 9 8 9 9 8 10 10 11 10 12 11 11 13 14 15 17 13 16 14 16 15 16 15 14 15 14 14 15 15